Search your local weather  

 

Hazardous Weather Conditions

No active alerts for PHOENIX, ARIZONA

Current Conditions: PHOENIX, ARIZONA

Fair


73.0 F

Last Updated on Mar 31 2020, 6:53 pm MST
Humidity: 29%
Wind Speed: NW 3.5 mph
Barometer 29.87 in
Dewpoint: 39.0 F
Visibility: 10.00 mi
Precip: --
Heat Index: NA
Wind Chill: NA
Current conditions at:

Phoenix, Phoenix-Deer Valley Municipal Airport, AZ (KDVT)

Lat: 33.69026 Lon: -112.06618

Local Radar Image active severe weather and emergency alerts image image weather storm and storm spotter reports image weather observation monitoring service image
Local
Radar
Active
Alerts
Storm Reports Weather
Monitoring

5 Day Forecast for PHOENIX, ARIZONA (85003)

Tuesday

Overcast

High 84 °F
Tuesday
Night
Overcast

Low 62 °F
Wednesday

Mostly Cloudy

High 87 °F
Wednesday
Night
Mostly Clear

Low 59 °F
Thursday

Sunny

High 84 °F
Thursday
Night
Clear

Low 57 °F
Friday

Sunny

High 85 °F
Friday
Night
Clear

Low 57 °F
Saturday

Mostly Sunny

High 86 °F

Sign-up For Email & Text Message Weather Alert Notification Services


Advertise Here

Observation History for PHOENIX, ARIZONA


Time Wind
(mph)
Vis
(mi)
Weather Precip (in) Temperature (F) Relative
Humidity
Wind
Chill
(F)
Heat
Index
(F)
Pressure
Air Dwpt altimeter
(in)
sea level
(mb)
6:53 pm MST NW 3.5 10.00 Fair -- 73.0 39.0 29% NA NA 29.87 1009.9
5:53 pm MST NW 6.9 10.00 Fair -- 76.0 35.1 23% NA NA 29.88 1010.2
4:53 pm MST N 0.0 10.00 Fair -- 77.0 32.0 19% NA NA 29.89 1010.6
3:53 pm MST 4.6 10.00 Fair -- 78.0 33.1 19% NA NA 29.91 1011.3
2:53 pm MST 4.6 10.00 Fair -- 78.0 34.0 20% NA NA 29.92 1011.7
1:53 pm MST 3.5 10.00 Fair -- 77.0 34.0 21% NA NA 29.95 1012.8
12:53 pm MST 4.6 10.00 Fair -- 75.0 37.0 25% NA NA 30.00 1014.3
11:53 am MST 4.6 10.00 Fair -- 74.0 37.0 26% NA NA 30.03 1015.5
10:53 am MST S 3.5 10.00 Fair -- 70.0 37.9 31% NA NA 30.06 1016.6
9:53 am MST 5.8 10.00 Fair -- 67.0 37.9 35% NA NA 30.07 1017.0
8:53 am MST N 0.0 10.00 Fair -- 65.0 39.9 40% NA NA 30.08 1017.0
7:53 am MST N 3.5 10.00 Fair -- 60.0 39.9 48% NA NA 30.08 1017.2
6:53 am MST N 0.0 10.00 Fair -- 54.0 39.9 59% NA NA 30.07 1017.1
5:53 am MST N 0.0 10.00 Fair -- 52.0 39.0 61% NA NA 30.07 1016.9
4:53 am MST N 0.0 10.00 Fair -- 55.0 37.0 51% NA NA 30.06 1016.6
3:53 am MST N 0.0 10.00 Fair -- 53.0 39.0 59% NA NA 30.08 1017.0
2:53 am MST NE 3.5 10.00 Fair -- 55.0 37.9 53% NA NA 30.09 1017.4
1:53 am MST NE 8.1 10.00 Fair -- 56.0 37.9 51% 54 NA 30.10 1018.0
12:53 am MST E 4.6 10.00 Fair -- 54.0 39.9 59% 53 NA 30.11 1018.4
11:53 pm MST N 0.0 10.00 Fair -- 53.0 41.0 64% NA NA 30.12 1018.7
10:53 pm MST NE 4.6 10.00 Fair -- 57.0 41.0 55% 57 NA 30.13 1019.1
9:53 pm MST N 0.0 10.00 Fair -- 60.0 39.9 48% NA NA 30.13 1019.2
8:53 pm MST SW 3.5 10.00 Fair -- 67.0 36.0 32% NA NA 30.13 1019.0
7:53 pm MST SW 3.5 10.00 Fair -- 67.0 35.1 31% NA NA 30.10 1018.2

Regional Weather Observation

Glendale, Glendale Municipal Airport, AZ (KGEU)

Overcast
75.0 F

Luke Air Force Base / Phoenix, AZ (KLUF)

Fair
75.0 F

Phoenix, Phoenix Sky Harbor International Airport, AZ (KPHX)

Overcast
74.0 F

Goodyear Municipal, AZ (KGYR)

Overcast
73.0 F

Buckeye Municipal Airport, AZ (KBXK)

Fair
72.0 F

Scottsdale Airport, AZ (KSDL)

Fair
76.0 F

Advertise Here

Advertise Here